Latrobe, PA

10:48 PM EDT on August 24, 2019 (GMT -0400)
Arnold Palmer Regional

Weather History for KLBE - May, 2019

Change the Weather History Date:

Wednesday, May 1, 2019

  Actual Average Record
Temperature  
Mean Temperature 73 °F -  
Max Temperature 84 °F 68 °F 104 °F (2015)
Min Temperature 62 °F 43 °F 35 °F (1999)
Cooling Degree Days 8    
Growing Degree Days 23 (Base 50)    
Moisture  
Dew Point 58 °F    
Average Humidity 71    
Maximum Humidity 88    
Minimum Humidity 39    
Precipitation  
Precipitation 0.00 in - - ()
Sea Level Pressure  
Sea Level Pressure 30.14 in    
Wind  
Wind Speed 6 mph (South)    
Max Wind Speed 17 mph    
Max Gust Speed 29 mph    
Visibility 11 miles    
Events      
Averages and records for this station are not official NWS values.
T = Trace of Precipitation, MM = Missing Value Source: NWS Daily Summary

Daily Weather History Graph

Daily Weather History Graph

Search for Another Location

Airport or City:

Astronomy

May. 01, 2019 Rise Set
Actual Time 6:17 AM EDT 8:12 PM EDT
Civil Twilight 5:47 AM EDT 8:42 PM EDT
Nautical Twilight 5:12 AM EDT 9:18 PM EDT
Astronomical Twilight 4:33 AM EDT 9:57 PM EDT
Moon 5:02 AM EDT (5/1) 4:58 PM EDT (5/1)
Length of Visible Light 14h 54m
Length of Day
13h 55m
Waning Crescent, 11% of the Moon is Illuminated
May 1
Waning Crescent
May 4
New
May 11
First Quarter
May 18
Full
May 26
Last Quarter

Hourly Weather History & Observations

Time (EDT) Temp. Heat Index Dew Point Humidity Pressure Visibility Wind Dir Wind Speed Gust Speed Precip Events Conditions
12:15 AM 62.6 °F - 57.2 °F 82% 30.21 in 10.0 mi Variable 4.6 mph 19.6 mph N/A   Clear
12:35 AM 62.6 °F - 57.2 °F 82% 30.20 in 10.0 mi Variable 3.5 mph - N/A   Clear
12:55 AM 62.6 °F - 57.2 °F 82% 30.20 in 10.0 mi Variable 4.6 mph - N/A   Clear
1:15 AM 62.6 °F - 57.2 °F 82% 30.19 in 10.0 mi Variable 4.6 mph - N/A   Clear
1:35 AM 62.6 °F - 57.2 °F 82% 30.18 in 10.0 mi Variable 5.8 mph - N/A   Clear
1:55 AM 62.6 °F - 57.2 °F 82% 30.16 in 10.0 mi West 3.5 mph - N/A   Clear
2:15 AM 62.6 °F - 57.2 °F 82% 30.15 in 10.0 mi Variable 4.6 mph - N/A   Clear
2:35 AM 62.6 °F - 59.0 °F 88% 30.15 in 10.0 mi Variable 6.9 mph 12.7 mph N/A   Clear
2:55 AM 62.6 °F - 59.0 °F 88% 30.16 in 10.0 mi SSE 6.9 mph 12.7 mph N/A   Clear
3:15 AM 62.6 °F - 59.0 °F 88% 30.16 in 10.0 mi SSW 6.9 mph 12.7 mph N/A   Clear
3:35 AM 62.6 °F - 57.2 °F 82% 30.16 in 10.0 mi Variable 3.5 mph - N/A   Clear
3:55 AM 62.6 °F - 57.2 °F 82% 30.16 in 10.0 mi ESE 8.1 mph - N/A   Clear
4:15 AM 64.4 °F - 57.2 °F 77% 30.15 in 10.0 mi SE 10.4 mph 19.6 mph N/A   Clear
4:35 AM 62.6 °F - 59.0 °F 88% 30.15 in 10.0 mi ESE 10.4 mph - N/A   Clear
4:55 AM 62.6 °F - 57.2 °F 82% 30.15 in 10.0 mi SE 5.8 mph 12.7 mph N/A   Clear
5:15 AM 64.4 °F - 59.0 °F 83% 30.15 in 10.0 mi SE 6.9 mph 12.7 mph N/A   Clear
5:35 AM 62.6 °F - 59.0 °F 88% 30.15 in 10.0 mi SE 9.2 mph - N/A   Clear
5:55 AM 62.6 °F - 59.0 °F 88% 30.16 in 10.0 mi SE 6.9 mph 16.1 mph N/A   Scattered Clouds
6:53 AM 64.4 °F - 59.0 °F 83% 30.17 in 10.0 mi South 5.8 mph - N/A   Scattered Clouds
7:53 AM 66.2 °F - 59.0 °F 78% 30.20 in 10.0 mi South 4.6 mph - N/A   Scattered Clouds
8:53 AM 69.8 °F - 59.0 °F 68% 30.20 in 10.0 mi South 10.4 mph - N/A   Mostly Cloudy
9:53 AM 71.6 °F - 60.8 °F 69% 30.20 in 10.0 mi SSE 5.8 mph - N/A   Scattered Clouds
10:53 AM 75.2 °F - 60.8 °F 61% 30.19 in 10.0 mi South 5.8 mph - N/A   Scattered Clouds
11:53 AM 78.8 °F - 62.6 °F 57% 30.18 in 10.0 mi SSW 15.0 mph 20.7 mph N/A   Scattered Clouds
12:47 PM 80.6 °F 81.5 °F 60.8 °F 51% 30.14 in 20.0 mi SW 17.3 mph 28.8 mph N/A   Mostly Cloudy
1:47 PM 82.4 °F 82.5 °F 59.0 °F 45% 30.12 in 20.0 mi SW 17.3 mph 28.8 mph N/A   Partly Cloudy
2:47 PM 82.4 °F 82.9 °F 60.8 °F 48% 30.16 in 20.0 mi SSW 17.3 mph 28.8 mph N/A   Scattered Clouds
3:47 PM 84.2 °F 83.8 °F 59.0 °F 42% 30.06 in 20.0 mi SW 13.8 mph 28.8 mph N/A   Scattered Clouds
4:50 PM 84.2 °F 83.5 °F 57.2 °F 40% 30.05 in 10.0 mi SW 16.1 mph 27.6 mph N/A   Partly Cloudy
5:55 PM 82.4 °F 81.7 °F 55.4 °F 39% 30.05 in 10.0 mi SW 11.5 mph - N/A   Mostly Cloudy
6:45 PM 80.6 °F 80.8 °F 57.2 °F 45% 30.05 in 10.0 mi SW 6.9 mph - N/A   Clear
7:55 PM 77.0 °F - 57.2 °F 50% 30.06 in 10.0 mi Calm Calm - N/A   Clear
8:45 PM 77.0 °F - 59.0 °F 54% 30.08 in 10.0 mi Calm Calm - N/A   Clear
9:45 PM 69.8 °F - 59.0 °F 68% 30.08 in 10.0 mi Calm Calm - N/A   Clear
10:15 PM 69.8 °F - 59.0 °F 68% 30.09 in 10.0 mi Calm Calm - N/A   Clear
10:35 PM 69.8 °F - 59.0 °F 68% 30.09 in 10.0 mi Calm Calm - N/A   Clear
10:55 PM 66.2 °F - 59.0 °F 78% 30.09 in 10.0 mi Calm Calm - N/A   Clear
11:15 PM 64.4 °F - 59.0 °F 83% 30.09 in 10.0 mi South 4.6 mph - N/A   Clear
11:35 PM 66.2 °F - 57.2 °F 73% 30.09 in 10.0 mi South 4.6 mph - N/A   Clear
11:55 PM 66.2 °F - 57.2 °F 73% 30.09 in 10.0 mi Calm Calm - N/A   Clear